Printer-friendly version

IAU Minor Planet Center

Minor Planet Center

MPEC 2008-G87 : 2008 GD110

The following Minor Planet Electronic Circular may be linked-to from your own Web pages, but must not otherwise be redistributed electronically.


Read MPEC 2008-G86 Read MPEC 2008-G88


M.P.E.C. 2008-G87                                Issued 2008 Apr. 15, 19:04 UT

     The Minor Planet Electronic Circulars contain information on unusual
         minor planets and routine data on comets.  They are published
   on behalf of Commission 20 of the International Astronomical Union by the
          Minor Planet Center, Smithsonian Astrophysical Observatory,
                          Cambridge, MA 02138, U.S.A.

             Prepared using the Tamkin Foundation Computer Network

                              MPC@CFA.HARVARD.EDU
          URL http://www.cfa.harvard.edu/iau/mpc.html  ISSN 1523-6714

                                  2008 GD110

Observations:
     K08GB0D* C2008 04 14.28705 13 15 08.02 -28 50 51.7          19.5 V EG087703
     K08GB0D  C2008 04 14.29358 13 15 05.58 -28 50 42.4          18.5 V EG087703
     K08GB0D  C2008 04 14.30012 13 15 03.24 -28 50 34.2          18.5 V EG087703
     K08GB0D  C2008 04 14.30667 13 15 00.79 -28 50 25.3          19.0 V EG087703
     K08GB0D  C2008 04 14.33641 13 14 49.74 -28 49 42.1          19.0 V EG087703
     K08GB0D  C2008 04 14.33728 13 14 49.52 -28 49 41.3          18.6 V EG087703
     K08GB0D  C2008 04 14.33817 13 14 49.09 -28 49 39.7          18.5 V EG087703
     K08GB0D  C2008 04 14.33904 13 14 48.84 -28 49 38.2          18.5 V EG087703
     K08GB0D  C2008 04 15.30041 13 09 41.11 -28 24 23.7          18.7 R EG087854
     K08GB0D  C2008 04 15.30329 13 09 39.82 -28 24 18.6          18.5 R EG087854
     K08GB0D  C2008 04 15.30617 13 09 38.45 -28 24 12.8          18.3 R EG087854
     K08GB0D .C2008 04 15.44753 13 08 59.58 -28 15 35.7          17.7 R EG087D90
     K08GB0D .C2008 04 15.45072 13 08 58.23 -28 15 31.2          17.6 R EG087D90
     K08GB0D .C2008 04 15.45285 13 08 57.34 -28 15 28.4          17.6 R EG087D90

Observer details:
703 Catalina Sky Survey.  Observer R. E. Hill.  Measurers E. C. Beshore,
    A. Boattini, G. J. Garradd, A. R. Gibbs, A. D. Grauer, R. E. Hill,
    R. A. Kowalski, S. M. Larson, R. H. McNaught.  0.68-m Schmidt + CCD.
854 Sabino Canyon Observatory, Tucson.  Observer J. E. McGaha.  0.36-m f/10.0
    Schmidt-Cassegrain + CCD.
D90 RAS Observatory, Moorook.  Observers C. Jacques, E. Pimentel.  Measurer
    C. Jacques.  0.25-m f/6.0 reflector + CCD.

Orbital elements:
2008 GD110                                               Earth MOID = 0.0004 AU
Epoch 2008 May 14.0 TT = JDT 2454600.5                  MPC
M 308.04379              (2000.0)            P               Q
n   0.95294048     Peri.  100.87457     +0.69376790     +0.71836763
a   1.0227250      Node   213.24296     -0.69193502     +0.64507904
e   0.2553295      Incl.    5.37205     -0.19977995     +0.26042460
P   1.03           H   24.5           G   0.15           U   8
Residuals in seconds of arc
080414 703  0.0   0.0     080414 703  0.7+  0.4-    080415 854  0.7-  0.2+
080414 703  0.5-  0.6+    080414 703  0.6-  0.1-    080415 D90  0.2-  0.3+
080414 703  0.5+  0.1-    080414 703  0.3+  0.1+    080415 D90  0.0   0.0
080414 703  0.1+  0.2-    080415 854  0.3+  0.0     080415 D90  0.2+  0.3-
080414 703  0.6-  0.1+    080415 854  0.3+  0.2-

Ephemeris:
2008 GD110               a,e,i = 1.02, 0.26, 5                   q = 0.7616
Date    TT    R. A. (2000) Decl.     Delta      r     Elong.  Phase     V
2008 04 14    13 16.46   -28 54.3    0.0456   1.046   160.3    18.9    18.9
2008 04 15    13 11.44   -28 30.0    0.0408   1.042   160.6    18.7    18.6
2008 04 16    13 05.16   -27 57.3    0.0360   1.038   160.6    18.7    18.3
2008 04 17    12 57.10   -27 12.2    0.0312   1.033   160.3    19.1    18.0
2008 04 18    12 46.40   -26 07.7    0.0265   1.029   159.4    20.1    17.7
2008 04 19    12 31.58   -24 30.1    0.0219   1.025   157.4    22.1    17.3
2008 04 20    12 09.88   -21 51.3    0.0175   1.020   153.4    26.1    16.9
2008 04 21    11 35.86   -17 07.2    0.0133   1.016   145.7    33.9    16.6
2008 04 22    10 38.71   -07 48.5    0.00980  1.012   130.4    49.2    16.3
2008 04 23    09 02.93   +09 15.2    0.00783  1.007   102.2    77.3    16.7
2008 04 24    06 59.31   +26 38.8    0.00858  1.003    69.2   110.3    18.4

Sonia Keys                   (C) Copyright 2008 MPC           M.P.E.C. 2008-G87

Read MPEC 2008-G86 Read MPEC 2008-G88


Our Web policy. Index to the CBAT/MPC/ICQ pages.


Valid HTML 4.01!